Vorticity
nan nan nan nan nan nan nan nan nan nan nan nan nan nan nan nan nan nan nan nan nan nan
nan 9 8 8 10 9 9 8 7 9 9 9 9 11 11 10 9 9 10 11 10 nan
nan 8 9 10 9 9 9 9 8 9 9 9 11 9 10 10 9 10 11 9 9 nan
nan 9 10 10 9 9 9 9 9 9 9 10 10 9 9 8 10 11 10 10 10 nan
nan 9 10 9 9 9 9 10 9 9 9 11 9 10 8 9 10 11 11 10 10 nan
nan 9 9 9 9 9 9 10 10 9 11 9 9 10 8 11 10 12 11 10 10 nan
nan 9 8 9 9 9 10 10 9 9 12 9 9 8 8 11 13 11 11 10 11 nan
nan 9 8 9 9 10 10 10 9 10 10 10 12 6 7 11 12 11 11 10 11 nan
nan 9 9 9 9 10 10 10 10 10 9 13 6 -0 11 16 16 13 12 11 11 nan
nan 9 9 9 10 10 10 10 10 10 9 11 6 3 9 18 21 12 11 12 11 nan
nan 9 9 9 10 11 11 10 10 10 9 12 4 3 9 18 21 12 11 10 10 nan
nan 9 9 9 10 11 11 10 10 10 9 11 4 4 11 20 16 10 10 10 10 nan
nan 9 9 10 10 11 11 11 11 9 9 9 8 3 10 20 14 11 10 8 7 nan
nan nan nan nan nan nan nan nan nan nan nan nan nan nan nan nan nan nan nan nan nan nan
CAPE
0 0 0 0 1 1 4 10 10 13 10 7 13 23 5 21 35 33 40 26 32 32
0 0 0 0 0 0 5 6 8 4 5 9 18 16 14 35 43 47 52 40 47 41
0 0 0 0 0 1 1 1 0 2 7 12 19 8 8 28 45 43 54 42 39 36
0 0 0 0 0 0 0 0 0 4 7 14 12 7 22 29 17 15 34 40 35 34
0 0 0 0 0 0 0 0 0 4 9 14 8 10 29 20 12 23 24 29 34 33
0 0 0 0 0 0 0 0 0 5 14 4 6 11 23 19 10 25 19 22 27 31
0 0 0 0 0 0 0 0 1 7 12 5 7 8 31 12 5 22 15 12 23 24
0 0 0 0 0 0 0 0 2 9 8 7 7 12 42 21 4 24 8 16 13 16
0 0 0 0 0 0 0 0 3 9 7 8 6 3 18 12 12 5 10 16 11 12
0 0 0 0 0 0 0 0 3 10 7 8 7 2 14 1 15 8 18 10 10 15
0 0 0 0 0 0 0 0 3 8 7 7 4 1 13 1 8 13 9 7 14 15
0 0 0 0 0 0 0 1 4 8 6 6 6 2 10 9 6 3 5 5 13 18
0 0 0 0 0 0 1 2 6 6 6 7 6 1 5 23 7 4 6 4 4 3
0 0 0 0 0 0 2 4 4 3 4 4 4 6 11 15 11 8 7 6 9 12